Terminal Aerodrome Forecast
Issued by NWS Denver/Boulder, CO

Home | Current Version | Previous Version | Text Only | Print | Product List | Glossary On
Versions: 1 2 3 4 5 6 7 8 9 10 11 12 13 14 15 16 17 18 19 20 21 22 23 24 25 26 27 28 29 30 31 32
000
FTUS45 KBOU 140458 AAB
TAFDEN
TAF AMD
KDEN 140458Z 1405/1506 01015KT P6SM VCSH FEW025 SCT050 BKN080
     FM140700 35010KT 3SM -SN BKN011 OVC025
      TEMPO 1408/1412 1 1/2SM -SN BR BKN008 OVC015
     FM141400 32007KT P6SM -SN SCT012 OVC025
     FM141500 30005KT P6SM VCSH SCT020 BKN045
     FM141700 33009KT P6SM SCT050 BKN090
     FM141900 33007KT P6SM FEW090 SCT220
     FM150100 04008KT P6SM SCT250
     FM150200 10006KT P6SM FEW250=

USA.gov is the U.S. government's official web portal to all federal, state and local government web resources and services.